DW8851 Weather Reports


Display with metric or nautical units.
time (UTC)temp
F
wind
direction
speed
MPH
gust
MPH
rain 1hr
in
rain 24hr
in
rain mn
in
humidity
%
barometer
mb
20260510230012 68 360 0.0 0.0 0.00 0.00 0.00 64 1012.4
20260510224510 67 360 0.0 0.0 0.00 0.00 0.00 66 1012.3
20260510223010 67 360 0.0 0.0 0.00 0.00 0.00 67 1012.3
20260510221509 67 360 0.0 0.0 0.00 0.00 0.00 65 1012.1
20260510220008 68 360 0.0 0.0 0.00 0.00 0.00 65 1011.8
20260510214508 68 360 0.0 0.0 0.00 0.00 0.00 64 1011.9
20260510213006 69 360 0.0 0.0 0.00 0.00 0.00 63 1011.7
20260510211506 69 360 0.0 0.0 0.00 0.00 0.00 64 1011.3
20260510210005 69 360 0.0 0.0 0.00 0.00 0.00 65 1011.3
20260510204505 69 360 0.0 0.0 0.00 0.00 0.00 69 1011.1
20260510203104 69 360 0.0 0.0 0.00 0.00 0.00 69 1011.0
20260510201502 70 360 0.0 0.0 0.00 0.00 0.00 69 1010.8
20260510200004 70 360 0.0 0.0 0.00 0.00 0.00 67 1010.6
20260510194503 71 360 0.0 10.0 0.00 0.00 0.00 66 1010.7
20260510193100 71 360 6.0 13.0 0.00 0.00 0.00 66 1010.8
20260510191605 70 360 2.0 10.0 0.00 0.00 0.00 68 1010.9
20260510190105 69 360 3.0 6.0 0.00 0.00 0.00 68 1010.9
20260510184600 70 360 3.0 11.0 0.00 0.00 0.00 66 1011.0
20260510183058 72 360 3.0 10.0 0.00 0.00 0.00 65 1010.9
20260510181607 72 360 3.0 10.0 0.00 0.00 0.00 66 1011.1
20260510180057 70 360 3.0 9.0 0.00 0.00 0.00 67 1011.1
20260510174554 71 187 3.0 10.0 0.00 0.00 0.00 67 1011.5
20260510173053 71 360 2.0 8.0 0.00 0.00 0.00 66 1011.7
20260510171559 71 192 3.0 6.0 0.00 0.00 0.00 67 1011.8
20260510170112 70 360 2.0 10.0 0.00 0.00 0.00 70 1012.0
20260510164559 69 360 3.0 10.0 0.00 0.00 0.00 70 1012.1
20260510163045 68 360 4.0 9.0 0.00 0.00 0.00 69 1012.1
20260510161544 68 360 2.0 9.0 0.00 0.00 0.00 71 1012.3
20260510160043 68 360 3.0 6.0 0.00 0.00 0.00 71 1012.4
20260510154540 67 360 4.0 10.0 0.00 0.00 0.00 72 1012.6
20260510153048 66 360 2.0 6.0 0.00 0.00 0.00 74 1012.7
20260510151537 65 360 1.0 5.0 0.00 0.00 0.00 74 1012.7
20260510150032 64 360 3.0 9.0 0.00 0.00 0.00 78 1012.7
20260510144529 64 360 1.0 5.0 0.00 0.00 0.00 78 1012.7
20260510143026 61 360 0.0 6.0 0.00 0.00 0.00 84 1012.9
20260510141528 60 360 3.0 8.0 0.00 0.00 0.00 85 1012.9
20260510140018 58 360 1.0 5.0 0.00 0.00 0.00 87 1012.7
20260510134515 56 360 2.0 6.0 0.00 0.00 0.00 90 1012.9
20260510133013 56 360 1.0 4.0 0.00 0.00 0.00 92 1012.9
20260510131511 55 360 2.0 5.0 0.00 0.00 0.00 93 1013.0
20260510130023 55 360 1.0 4.0 0.00 0.00 0.00 93 1012.8
20260510124506 55 360 1.0 4.0 0.00 0.00 0.00 94 1012.6
20260510123004 54 360 1.0 4.0 0.00 0.00 0.00 94 1012.5
20260510121604 54 360 0.0 5.0 0.00 0.00 0.00 95 1012.6
20260510120010 54 360 0.0 2.0 0.00 0.00 0.00 95 1012.6
20260510114505 54 360 0.0 2.0 0.00 0.00 0.00 95 1012.4
20260510113059 53 360 0.0 2.0 0.00 0.00 0.00 95 1012.4
20260510111558 53 360 0.0 2.0 0.00 0.00 0.00 95 1012.4
20260510110054 53 360 0.0 4.0 0.00 0.00 0.00 95 1012.3
20260510104557 53 360 1.0 3.0 0.00 0.00 0.00 95 1011.9
20260510103051 53 360 1.0 3.0 0.00 0.00 0.00 95 1012.0
20260510101550 53 360 2.0 4.0 0.00 0.00 0.00 95 1011.7
20260510100048 53 360 2.0 6.0 0.00 0.00 0.00 95 1011.3
20260510094546 53 360 1.0 4.0 0.00 0.00 0.00 95 1011.4
20260510093052 53 360 1.0 3.0 0.00 0.00 0.00 95 1011.4
20260510091544 53 360 1.0 4.0 0.00 0.00 0.00 95 1011.6
20260510090046 53 360 0.0 3.0 0.00 0.00 0.00 95 1011.5
20260510084543 53 360 0.0 0.0 0.00 0.00 0.00 95 1011.9
20260510083053 53 360 0.0 3.0 0.00 0.00 0.00 95 1011.7
20260510081542 53 360 0.0 2.0 0.00 0.00 0.00 95 1011.8
20260510080040 53 360 0.0 1.0 0.00 0.00 0.00 95 1011.8
20260510074539 53 360 0.0 3.0 0.00 0.00 0.00 95 1011.7
20260510073037 53 360 0.0 3.0 0.00 0.00 0.00 95 1011.6
20260510071540 53 360 0.0 3.0 0.00 0.00 0.00 95 1011.4
20260510070037 53 360 1.0 3.0 0.00 0.00 0.00 95 1011.3
20260510064539 53 360 0.0 2.0 0.00 0.00 0.00 95 1011.4
20260510063035 53 360 0.0 2.0 0.00 0.00 0.00 95 1011.4
20260510061536 52 360 0.0 3.0 0.00 0.00 0.00 95 1011.1
20260510060036 53 360 0.0 3.0 0.00 0.00 0.00 95 1010.9
20260510054532 53 360 1.0 3.0 0.00 0.00 0.00 95 1011.0
20260510053030 53 360 1.0 4.0 0.00 0.00 0.00 95 1010.9
20260510051528 54 360 0.0 5.0 0.00 0.00 0.00 95 1011.2
20260510050033 54 360 0.0 2.0 0.00 0.00 0.00 95 1011.3
20260510044526 54 360 0.0 2.0 0.00 0.00 0.00 95 1011.1
20260510043025 53 360 0.0 1.0 0.00 0.00 0.00 95 1011.2
20260510041523 54 360 0.0 0.0 0.00 0.00 0.00 94 1011.5
20260510040020 54 360 0.0 0.0 0.00 0.00 0.00 95 1011.4
20260510034526 54 360 0.0 1.0 0.00 0.00 0.00 94 1011.4
20260510033023 54 360 0.0 0.0 0.00 0.00 0.00 95 1011.4
20260510031519 54 360 0.0 0.0 0.00 0.00 0.00 95 1011.3
20260510030024 54 360 0.0 0.0 0.00 0.00 0.00 94 1011.3
20260510024518 54 360 0.0 0.0 0.00 0.00 0.00 94 1011.1
20260510023017 54 360 0.0 1.0 0.00 0.00 0.00 94 1011.1
20260510021524 54 360 0.0 0.0 0.00 0.00 0.00 94 1011.4
20260510020016 54 360 0.0 0.0 0.00 0.00 0.00 94 1011.7
20260510014515 54 360 0.0 1.0 0.00 0.00 0.00 94 1011.7
20260510013015 54 360 0.0 0.0 0.00 0.00 0.00 94 1011.7
20260510011516 53 360 0.0 0.0 0.00 0.00 0.00 94 1011.4
20260510010013 53 360 0.0 0.0 0.00 0.00 0.00 94 1011.1
20260510004512 53 360 0.0 0.0 0.00 0.00 0.00 94 1011.1
20260510003013 53 360 0.0 1.0 0.00 0.00 0.00 94 1010.8
20260510001512 53 360 0.0 3.0 0.00 0.00 0.00 94 1010.6
20260510000010 53 360 1.0 8.0 0.00 0.00 0.00 94 1010.7
20260509234521 53 360 1.0 5.0 0.00 0.00 0.00 94 1010.7
20260509233010 53 360 2.0 5.0 0.00 0.00 0.00 94 1010.8
20260509231515 53 360 1.0 5.0 0.00 0.00 0.00 93 1010.7